{"data":{"norad_id":67213,"intl_designator":"2025-304X","name":"STARLINK-36199","alt_names":[],"object_type":"PAYLOAD","status":"ACTIVE","operator":null,"country":"US","launch_date":"2025-12-17","launch_site_code":"AFWTR","launch_vehicle":null,"mission":null,"orbit_class":"UNKNOWN","rcs_meters":null,"size_class":null,"mass_kg":null,"dimensions":null,"purposes":["comms"],"wikipedia_slug":null,"has_3d_model":false,"image_url":null,"decayed_at":null,"tle_current":{"epoch":"2026-09-19T19:00:39.481632Z","epoch_age_seconds":136615,"freshness":"FRESH","line1":"1 67213U 25304X   26262.79212363  .00009950  00000+0  83983-3 0  9990","line2":"2 67213  70.0016  44.8761 0002971 270.7874  89.2945 14.98360925 42964","mean_motion":14.98360925,"eccentricity":0.0002971,"inclination_deg":70.0016,"raan_deg":44.8761,"arg_perigee_deg":270.7874,"mean_anomaly_deg":89.2945,"bstar":0.00083983,"rev_number":4296,"period_min":96.105015552244,"perigee_km":569.89538568194,"apogee_km":574.02513347358,"semimajor_km":6950.0972595778,"source":"CELESTRAK","updated_at":"2026-09-20T09:00:43.483900Z"}}}